EW2575 Weather Reports


time (UTC)temp
C
wind
direction
speed
KPH
gust
KPH
rain 1hr
cm
rain 24hr
cm
rain mn
cm
humidity
%
barometer
mb
20190421000613 13 176 0.0 4.8 0.00 0.00 0.00 85 1017.8
20190421000053 13 177 0.0 4.8 0.00 0.00 0.00 85 1017.8
20190420235546 13 177 0.0 4.8 0.00 0.00 0.00 85 1017.8
20190420235047 13 176 0.0 1.6 0.00 0.00 0.00 85 1018.0
20190420234610 13 177 0.0 0.0 0.00 0.00 0.00 85 1018.1
20190420234045 13 177 0.0 0.0 0.00 0.00 0.00 85 1018.1
20190420233550 13 177 0.0 0.0 0.00 0.00 0.00 85 1018.2
20190420233051 13 177 0.0 0.0 0.00 0.00 0.00 85 1018.2
20190420232539 13 177 0.0 0.0 0.00 0.00 0.00 85 1018.2
20190420232039 13 177 0.0 0.0 0.00 0.00 0.00 85 1018.2
20190420231058 13 177 0.0 0.0 0.00 0.00 0.00 85 1018.1
20190420230602 13 177 0.0 0.0 0.00 0.00 0.00 85 1018.1
20190420230204 13 177 0.0 0.0 0.00 0.00 0.00 85 1018.1
20190420225554 13 177 0.0 0.0 0.00 0.00 0.00 85 1018.0
20190420225058 13 177 0.0 0.0 0.00 0.00 0.00 85 1017.9
20190420224635 13 177 0.0 0.0 0.00 0.00 0.00 85 1018.0
20190420223541 13 177 0.0 0.0 0.00 0.00 0.00 85 1018.1
20190420223052 13 177 0.0 0.0 0.00 0.00 0.00 85 1018.2
20190420222542 13 177 0.0 0.0 0.00 0.00 0.00 85 1018.2
20190420222034 13 177 0.0 0.0 0.00 0.00 0.00 84 1018.3
20190420221540 13 177 0.0 0.0 0.00 0.00 0.00 84 1018.2
20190420221030 14 177 0.0 0.0 0.00 0.00 0.00 84 1018.2
20190420220535 14 176 0.0 0.0 0.00 0.00 0.00 84 1018.2
20190420220057 14 176 0.0 0.0 0.00 0.00 0.00 84 1018.2
20190420215535 14 176 0.0 4.8 0.00 0.00 0.00 83 1018.1
20190420215032 13 176 0.0 4.8 0.00 0.00 0.00 83 1018.1
20190420214613 13 175 0.0 6.4 0.00 0.00 0.00 82 1017.9
20190420213516 13 169 0.0 4.8 0.00 0.00 0.00 83 1017.9
20190420213017 13 169 0.0 9.7 0.00 0.00 0.00 83 1017.8
20190420212508 13 170 0.0 12.9 0.00 0.00 0.00 85 1017.7
20190420212012 13 169 4.8 12.9 0.00 0.00 0.00 86 1017.7
20190420211521 13 178 3.2 6.4 0.00 0.00 0.00 86 1017.7
20190420211010 13 178 0.0 1.6 0.00 0.00 0.00 87 1017.7
20190420210513 13 178 0.0 1.6 0.00 0.00 0.00 87 1017.6
20190420210016 13 178 0.0 0.0 0.00 0.00 0.00 87 1017.7
20190420205513 13 178 0.0 0.0 0.00 0.00 0.00 87 1017.7
20190420205009 13 178 0.0 0.0 0.00 0.00 0.00 86 1017.6
20190420204510 13 178 0.0 0.0 0.00 0.00 0.00 86 1017.6
20190420203508 13 178 3.2 8.0 0.00 0.00 0.00 86 1017.6
20190420203010 13 178 0.0 3.2 0.00 0.00 0.00 87 1017.6
20190420202539 13 178 0.0 8.0 0.00 0.00 0.00 87 1017.6
20190420202009 13 178 1.6 8.0 0.00 0.00 0.00 87 1017.5
20190420201516 13 178 0.0 6.4 0.00 0.00 0.00 87 1017.5
20190420201007 13 178 1.6 6.4 0.00 0.00 0.00 87 1017.4
20190420200153 14 178 0.0 4.8 0.00 0.00 0.00 86 1017.4
20190420195549 14 178 0.0 4.8 0.00 0.00 0.00 86 1017.3
20190420195051 14 178 0.0 6.4 0.00 0.00 0.00 85 1017.2
20190420194619 14 178 1.6 6.4 0.00 0.00 0.00 84 1017.3
20190420194043 13 178 0.0 4.8 0.00 0.00 0.00 84 1017.3
20190420193545 14 178 0.0 4.8 0.00 0.00 0.00 84 1017.2
20190420193153 13 178 0.0 0.0 0.00 0.00 0.00 84 1017.2
20190420192544 13 178 0.0 3.2 0.00 0.00 0.00 84 1017.1
20190420192044 14 178 0.0 6.4 0.00 0.00 0.00 85 1017.1
20190420191713 14 178 1.6 6.4 0.00 0.00 0.00 85 1017.2
20190420190155 14 178 1.6 9.7 0.00 0.00 0.00 84 1017.0
20190420185552 14 165 0.0 9.7 0.00 0.00 0.00 83 1016.9
20190420185054 14 165 0.0 9.7 0.00 0.00 0.00 83 1016.9
20190420184704 14 164 0.0 0.0 0.00 0.00 0.00 82 1016.9
20190420184052 14 164 0.0 0.0 0.00 0.00 0.00 81 1016.9
20190420183555 14 164 0.0 8.0 0.00 0.00 0.00 80 1016.8
20190420183258 15 164 0.0 8.0 0.00 0.00 0.00 79 1016.9
20190420182557 15 163 0.0 0.0 0.00 0.00 0.00 78 1016.8
20190420182050 15 159 0.0 0.0 0.00 0.00 0.00 75 1016.7
20190420181642 15 160 0.0 14.5 0.00 0.00 0.00 75 1016.7
20190420181057 15 160 0.0 17.7 0.00 0.00 0.00 75 1016.7
20190420180550 15 360 8.0 17.7 0.00 0.00 0.00 73 1016.7
20190420180054 15 95 3.2 17.7 0.00 0.00 0.00 73 1016.6
20190420175527 15 134 0.0 16.1 0.00 0.00 0.00 73 1016.5
20190420175025 15 78 9.7 16.1 0.00 0.00 0.00 73 1016.5
20190420174549 15 98 1.6 14.5 0.00 0.00 0.00 73 1016.5
20190420174030 15 110 4.8 16.1 0.00 0.00 0.00 73 1016.5
20190420173525 15 113 9.7 16.1 0.00 0.00 0.00 73 1016.5
20190420173041 14 88 0.0 17.7 0.00 0.00 0.00 75 1016.5
20190420172528 14 96 8.0 17.7 0.00 0.00 0.00 75 1016.5
20190420172025 14 112 4.8 19.3 0.00 0.00 0.00 76 1016.5
20190420171537 14 76 11.3 19.3 0.00 0.00 0.00 77 1016.4
20190420171025 14 99 8.0 17.7 0.00 0.00 0.00 78 1016.4
20190420170120 14 134 8.0 16.1 0.00 0.00 0.00 80 1016.4
20190420165534 14 94 9.7 17.7 0.00 0.00 0.00 80 1016.4
20190420165038 14 142 9.7 17.7 0.00 0.00 0.00 79 1016.5
20190420164606 15 136 8.0 19.3 0.00 0.00 0.00 80 1016.5
20190420164038 15 131 6.4 17.7 0.00 0.00 0.00 80 1016.6
20190420163535 14 122 0.0 17.7 0.00 0.00 0.00 80 1016.6
20190420163105 14 115 6.4 16.1 0.00 0.00 0.00 79 1016.6
20190420162535 15 116 8.0 17.7 0.00 0.00 0.00 79 1016.6
20190420162033 15 121 6.4 14.5 0.00 0.00 0.00 79 1016.5
20190420161550 15 102 1.6 17.7 0.00 0.00 0.00 79 1016.5
20190420161032 15 110 11.3 17.7 0.00 0.00 0.00 79 1016.6
20190420160536 15 110 0.0 17.7 0.00 0.00 0.00 79 1016.6
20190420160035 15 109 9.7 17.7 0.00 0.00 0.00 79 1016.7
20190420155518 15 136 4.8 12.9 0.00 0.00 0.00 79 1016.7
20190420155014 15 124 0.0 12.9 0.00 0.00 0.00 80 1016.7
20190420154521 15 121 1.6 11.3 0.00 0.00 0.00 79 1016.8
20190420154013 15 145 1.6 16.1 0.00 0.00 0.00 79 1016.8
20190420153518 15 62 9.7 16.1 0.00 0.00 0.00 78 1016.8
20190420153023 15 148 3.2 16.1 0.00 0.00 0.00 78 1016.9
20190420152513 15 111 3.2 22.5 0.00 0.00 0.00 78 1016.9
20190420152013 15 172 8.0 25.7 0.00 0.00 0.00 78 1016.9
20190420151516 15 126 11.3 25.7 0.00 0.00 0.00 78 1016.9
20190420151015 15 97 14.5 22.5 0.00 0.00 0.00 77 1017.0
20190420150024 15 155 6.4 17.7 0.00 0.00 0.00 76 1017.2
20190420145507 15 171 1.6 20.9 0.00 0.00 0.00 76 1017.1
20190420145012 15 138 11.3 24.1 0.00 0.00 0.00 77 1017.1
20190420144529 15 150 17.7 25.7 0.00 0.00 0.00 76 1017.2
20190420144007 15 173 8.0 19.3 0.00 0.00 0.00 76 1017.2
20190420143511 15 51 8.0 24.1 0.00 0.00 0.00 77 1017.2
20190420142541 15 132 9.7 25.7 0.00 0.00 0.00 76 1017.5
20190420142044 15 148 6.4 24.1 0.00 0.00 0.00 76 1017.3
20190420141553 15 120 11.3 24.1 0.00 0.00 0.00 77 1017.3
20190420141040 15 142 11.3 25.7 0.00 0.00 0.00 76 1017.4
20190420140540 15 115 4.8 20.9 0.00 0.00 0.00 78 1017.4
20190420140149 15 96 16.1 25.7 0.00 0.00 0.00 78 1017.4
20190420135536 15 105 14.5 25.7 0.00 0.00 0.00 78 1017.4
20190420135041 15 109 14.5 25.7 0.00 0.00 0.00 78 1017.5
20190420134559 15 114 14.5 22.5 0.00 0.00 0.00 77 1017.6
20190420134036 15 107 6.4 17.7 0.00 0.00 0.00 77 1017.6
20190420133537 15 98 8.0 17.7 0.00 0.00 0.00 77 1017.6
20190420133150 15 123 4.8 17.7 0.00 0.00 0.00 78 1017.6
20190420132035 15 223 9.7 27.4 0.00 0.00 0.00 78 1017.6
20190420131625 15 215 9.7 14.5 0.00 0.00 0.00 81 1017.6
20190420131038 15 206 3.2 12.9 0.00 0.00 0.00 80 1017.7
20190420130532 15 237 0.0 12.9 0.00 0.00 0.00 80 1017.8
20190420130108 15 233 0.0 12.9 0.00 0.00 0.00 81 1017.9
20190420125533 15 248 4.8 14.5 0.00 0.00 0.00 80 1018.0
20190420124621 15 224 4.8 14.5 0.00 0.00 0.00 77 1018.1
20190420124035 15 227 4.8 14.5 0.00 0.00 0.00 77 1018.1
20190420123530 16 205 1.6 16.1 0.00 0.00 0.00 74 1018.0
20190420122058 15 101 8.0 22.5 0.00 0.00 0.00 70 1018.0
20190420121705 15 114 9.7 22.5 0.00 0.00 0.00 70 1018.1
20190420121058 16 65 8.0 20.9 0.00 0.00 0.00 69 1018.1
20190420120549 15 84 0.0 14.5 0.00 0.00 0.00 70 1018.0
20190420120156 15 138 3.2 17.7 0.00 0.00 0.00 71 1018.0
20190420115548 15 92 8.0 24.1 0.00 0.00 0.00 72 1018.0
20190420115052 15 98 12.9 24.1 0.00 0.00 0.00 73 1018.0
20190420114638 15 119 6.4 22.5 0.00 0.00 0.00 74 1018.1
20190420114046 15 138 3.2 22.5 0.00 0.00 0.00 75 1018.0
20190420113545 15 88 3.2 24.1 0.00 0.00 0.00 75 1018.1
20190420112518 15 142 8.0 19.3 0.00 0.00 0.00 77 1018.1
20190420112022 15 73 3.2 16.1 0.00 0.00 0.00 76 1018.1
20190420111548 15 123 4.8 16.1 0.00 0.00 0.00 75 1018.2
20190420111022 15 61 1.6 14.5 0.00 0.00 0.00 75 1018.1
20190420110515 15 148 1.6 17.7 0.00 0.00 0.00 74 1018.0
20190420110043 15 143 9.7 19.3 0.00 0.00 0.00 74 1018.0
20190420105514 15 92 4.8 25.7 0.00 0.00 0.00 74 1018.0
20190420105056 15 96 4.8 25.7 0.00 0.00 0.00 74 1018.0
20190420104644 15 94 6.4 19.3 0.00 0.00 0.00 74 1018.1
20190420104055 15 99 8.0 19.3 0.00 0.00 0.00 74 1018.1
20190420103554 15 94 9.7 17.7 0.00 0.00 0.00 74 1018.0
20190420103140 15 76 6.4 20.9 0.00 0.00 0.00 74 1017.9
20190420102554 15 90 11.3 20.9 0.00 0.00 0.00 74 1018.0
20190420102102 15 106 0.0 17.7 0.00 0.00 0.00 74 1018.0
20190420101647 15 55 6.4 17.7 0.00 0.00 0.00 74 1017.9
20190420101029 15 138 11.3 17.7 0.00 0.00 0.00 73 1018.0
20190420100528 15 129 3.2 12.9 0.00 0.00 0.00 73 1018.0
20190420100103 15 121 3.2 14.5 0.00 0.00 0.00 74 1018.0
20190420095532 15 102 3.2 16.1 0.00 0.00 0.00 74 1017.9
20190420095025 15 69 6.4 19.3 0.00 0.00 0.00 74 1017.9
20190420094546 14 90 6.4 17.7 0.00 0.00 0.00 74 1017.8
20190420094025 14 108 9.7 17.7 0.00 0.00 0.00 74 1017.7
20190420093532 14 98 3.2 20.9 0.00 0.00 0.00 75 1017.8
20190420093100 14 93 9.7 20.9 0.00 0.00 0.00 75 1017.8
20190420092522 14 73 4.8 17.7 0.00 0.00 0.00 75 1017.8
20190420091056 14 88 3.2 17.7 0.00 0.00 0.00 76 1017.7
20190420090551 14 92 8.0 14.5 0.00 0.00 0.00 76 1017.5
20190420090106 14 92 0.0 12.9 0.00 0.00 0.00 77 1017.5
20190420085603 14 92 1.6 14.5 0.00 0.00 0.00 77 1017.5
20190420084625 14 78 4.8 17.7 0.00 0.00 0.00 77 1017.6
20190420084048 14 57 6.4 17.7 0.00 0.00 0.00 76 1017.5
20190420083556 15 95 3.2 11.3 0.00 0.00 0.00 76 1017.4
20190420083128 15 95 3.2 11.3 0.00 0.00 0.00 75 1017.3
20190420082547 14 96 0.0 0.0 0.00 0.00 0.00 77 1017.2
20190420081509 13 96 0.0 12.9 0.00 0.00 0.00 79 1017.2
20190420081006 13 96 6.4 12.9 0.00 0.00 0.00 82 1017.3
20190420080505 13 90 4.8 12.9 0.00 0.00 0.00 84 1017.3
20190420080012 13 78 1.6 8.0 0.00 0.00 0.00 84 1017.3
20190420075506 13 78 1.6 6.4 0.00 0.00 0.00 84 1017.3
20190420075004 13 78 0.0 0.0 0.00 0.00 0.00 84 1017.2
20190420073525 13 78 0.0 0.0 0.00 0.00 0.00 82 1017.2
20190420073104 13 78 0.0 0.0 0.00 0.00 0.00 80 1017.2
20190420072522 13 78 0.0 9.7 0.00 0.00 0.00 79 1017.1
20190420072022 12 78 3.2 9.7 0.00 0.00 0.00 78 1017.1
20190420071559 12 77 0.0 9.7 0.00 0.00 0.00 79 1017.0
20190420071022 12 77 0.0 12.9 0.00 0.00 0.00 79 1017.0
20190420070520 12 77 6.4 12.9 0.00 0.00 0.00 79 1017.0
20190420070110 12 76 3.2 9.7 0.00 0.00 0.00 79 1017.1
20190420065518 12 76 3.2 9.7 0.00 0.00 0.00 79 1017.0
20190420065020 12 76 1.6 12.9 0.00 0.00 0.00 79 1017.0
20190420063509 12 81 6.4 12.9 0.00 0.00 0.00 79 1016.9
20190420063011 12 80 6.4 12.9 0.00 0.00 0.00 78 1016.9
20190420062503 12 80 4.8 12.9 0.00 0.00 0.00 78 1016.8
20190420062006 12 79 6.4 12.9 0.00 0.00 0.00 78 1016.7
20190420061503 12 78 3.2 16.1 0.00 0.00 0.00 79 1016.7
20190420061001 12 76 6.4 16.1 0.00 0.00 0.00 79 1016.7
20190420060115 12 74 9.7 16.1 0.00 0.00 0.00 80 1016.7
20190420055548 12 77 4.8 14.5 0.00 0.00 0.00 80 1016.7
20190420055047 12 80 6.4 16.1 0.00 0.00 0.00 80 1016.7
20190420054612 12 82 11.3 17.7 0.00 0.00 0.00 80 1016.7
20190420054045 12 88 9.7 16.1 0.00 0.00 0.00 80 1016.7
20190420053543 12 92 9.7 14.5 0.00 0.00 0.00 81 1016.8
20190420053039 12 102 8.0 14.5 0.00 0.00 0.00 81 1016.8
20190420052526 12 105 9.7 14.5 0.00 0.00 0.00 81 1017.0
20190420052024 12 107 8.0 14.5 0.00 0.00 0.00 82 1017.0
20190420051604 12 107 3.2 16.1 0.00 0.00 0.00 82 1017.0
20190420051025 12 108 9.7 16.1 0.00 0.00 0.00 83 1017.0
20190420050524 12 114 8.0 12.9 0.00 0.00 0.00 83 1017.0
20190420050059 12 115 4.8 14.5 0.00 0.00 0.00 83 1017.0
20190420045532 12 115 8.0 14.5 0.00 0.00 0.00 83 1017.0
20190420045030 12 126 3.2 12.9 0.00 0.00 0.00 84 1017.0
20190420044555 12 126 8.0 12.9 0.00 0.00 0.00 84 1017.0
20190420044028 12 130 8.0 11.3 0.00 0.00 0.00 84 1017.1
20190420043532 12 130 1.6 11.3 0.00 0.00 0.00 84 1017.2
20190420043021 12 130 6.4 12.9 0.00 0.00 0.00 84 1017.2
20190420042517 12 131 3.2 12.9 0.00 0.00 0.00 84 1017.1
20190420042009 12 137 3.2 11.3 0.00 0.00 0.00 84 1017.1
20190420041510 12 139 6.4 11.3 0.00 0.00 0.00 84 1017.0
20190420041008 12 143 4.8 11.3 0.00 0.00 0.00 84 1017.0
20190420040506 12 146 0.0 8.0 0.00 0.00 0.00 84 1017.2
20190420040010 12 146 4.8 8.0 0.00 0.00 0.00 84 1017.1
20190420035506 12 146 0.0 6.4 0.00 0.00 0.00 84 1017.1
20190420035008 12 146 0.0 6.4 0.00 0.00 0.00 84 1017.1
20190420034515 12 146 0.0 11.3 0.00 0.00 0.00 84 1017.2
20190420034008 12 146 4.8 11.3 0.00 0.00 0.00 83 1017.2
20190420033505 12 148 4.8 9.7 0.00 0.00 0.00 83 1017.2
20190420033021 12 149 1.6 9.7 0.00 0.00 0.00 83 1017.4
20190420032031 12 149 4.8 9.7 0.00 0.00 0.00 83 1017.6
20190420031540 12 149 1.6 4.8 0.00 0.00 0.00 83 1017.6
20190420031033 12 149 0.0 9.7 0.00 0.00 0.00 84 1017.5
20190420030528 12 149 4.8 9.7 0.00 0.00 0.00 84 1017.5
20190420030107 12 149 0.0 8.0 0.00 0.00 0.00 84 1017.4
20190420025537 12 149 0.0 4.8 0.00 0.00 0.00 84 1017.5
20190420025025 12 149 0.0 9.7 0.00 0.00 0.00 84 1017.5
20190420024532 12 149 3.2 9.7 0.00 0.00 0.00 84 1017.5
20190420024024 12 149 4.8 9.7 0.00 0.00 0.00 84 1017.6
20190420023525 12 149 0.0 11.3 0.00 0.00 0.00 83 1017.6
20190420023116 12 149 0.0 11.3 0.00 0.00 0.00 83 1017.8
20190420022525 12 153 4.8 11.3 0.00 0.00 0.00 82 1017.9
20190420022011 12 155 4.8 11.3 0.00 0.00 0.00 83 1018.1
20190420021518 12 155 4.8 9.7 0.00 0.00 0.00 82 1018.3
20190420021009 12 155 0.0 3.2 0.00 0.00 0.00 82 1018.5
20190420020508 12 155 0.0 11.3 0.00 0.00 0.00 82 1018.5
20190420020014 12 155 0.0 11.3 0.00 0.00 0.00 82 1018.7
20190420015506 12 159 6.4 11.3 0.00 0.00 0.00 82 1018.6
20190420015005 13 192 4.8 6.4 0.00 0.00 0.00 82 1018.8
20190420014508 13 194 3.2 6.4 0.00 0.00 0.00 82 1018.8
20190420014005 13 194 0.0 4.8 0.00 0.00 0.00 83 1018.8
20190420013504 13 194 0.0 4.8 0.00 0.00 0.00 84 1018.9
20190420013005 13 194 0.0 6.4 0.00 0.00 0.00 85 1018.9
20190420012508 13 194 1.6 6.4 0.00 0.00 0.00 86 1018.9
20190420012001 13 194 0.0 0.0 0.00 0.00 0.00 88 1019.0
20190420011842 13 194 0.0 0.0 0.00 0.00 0.00 88 1018.9
20190420011108 13 194 0.0 0.0 0.00 0.00 0.00 88 1019.0
20190420010601 13 194 0.0 0.0 0.00 0.00 0.00 88 1019.1
20190420010212 13 194 0.0 8.0 0.00 0.00 0.00 88 1019.2
20190420005013 13 194 1.6 9.7 0.00 0.00 0.00 88 1019.4
20190420004513 13 194 6.4 9.7 0.00 0.00 0.00 87 1019.5
20190420004005 13 194 4.8 9.7 0.00 0.00 0.00 87 1019.6
20190420003504 13 194 3.2 11.3 0.00 0.00 0.00 87 1019.5
20190420003005 13 194 4.8 11.3 0.00 0.00 0.00 87 1019.4
20190420002506 13 194 4.8 9.7 0.00 0.00 0.00 88 1019.5
20190420001502 13 194 3.2 9.7 0.00 0.00 0.00 87 1019.5
20190420001002 13 194 3.2 12.9 0.00 0.00 0.00 87 1019.5